Flag for Germany Weather past 2 weeks in Bitterfeld-Wolfen, Saxony-Anhalt, Germany

Now
52 °F

Clear.


Feels Like: 48 °F
Forecast: 48 / 64 °F
Wind: 10 mph from West

Location: Leipzig-Schkeuditz

Current Time: May 6, 2015 at 10:43:10 PM

Latest Report: May 6, 2015 at 10:20 PM


Visibility: 10 mi

Pressure: 29.95 "Hg

Humidity: 67%

Dew point: 41 °F

Location of Bitterfeld-WolfenLocation

Historic Weather in Bitterfeld-Wolfen — Graph

°F

Bitterfeld-Wolfen temperature yesterday

Maximum temperature yesterday: 75 °F (at 2:50 PM)
Minimum temperature yesterday: 57 °F (at 12:50 AM)
Average temperature yesterday: 66 °F

Past Weeks' High & Low Weather Summary

 TemperatureHumidityPressure
High75 °F (May 5, 2:50 PM)100% (Apr 23, 12:50 AM)30.33 "Hg (Apr 23, 12:50 AM)
Low34 °F (Apr 23, 5:50 AM)28% (Apr 29, 2:20 PM)29.56 "Hg (Apr 27, 5:20 AM)
Average54 °F69%29.88 "Hg
* Reported Apr 21 9:20 PM — May 6 9:20 PM, Bitterfeld-Wolfen, Weather by CustomWeather, © 2015

Note: Actual official high and low records may vary slightly from our data, if they occured in-between our weather recording intervals... More about our weather records

Advertising

Bitterfeld-Wolfen weather history for previous 24 hours

 ConditionsComfort  
Time TempWeatherWind HumidityBarometerVisibility
9:20 PM
Wed, May 6
55 °FSunny.12 mph59%29.92 "Hg10 mi
8:50 PM57 °FSunny.9 mph55%29.92 "Hg10 mi
8:20 PM61 °FSunny.13 mph48%29.89 "Hg10 mi
7:50 PM63 °FSunny.13 mph45%29.89 "Hg10 mi
7:20 PM64 °FSunny.12 mph40%29.89 "Hg10 mi
6:50 PM66 °FSunny.15 mph35%29.86 "Hg10 mi
6:20 PM68 °FSunny.16 mph30%29.86 "Hg10 mi
5:50 PM68 °FSunny.17 mph30%29.86 "Hg10 mi
5:20 PM70 °FSunny.15 mph29%29.86 "Hg10 mi
4:50 PM70 °FSunny.16 mph33%29.89 "Hg10 mi
4:20 PM70 °FSunny.17 mph33%29.89 "Hg10 mi
3:50 PM70 °FSunny.17 mph33%29.89 "Hg10 mi
3:20 PM70 °FSunny.16 mph35%29.89 "Hg10 mi
2:50 PM70 °FSunny.16 mph38%29.89 "Hg10 mi
2:20 PM68 °FSunny.18 mph43%29.89 "Hg10 mi
1:50 PM66 °FScattered clouds.14 mph49%29.89 "HgN/A
1:20 PM64 °FPartly sunny.13 mph52%29.89 "HgN/A
12:50 PM64 °FPartly sunny.9 mph49%29.92 "HgN/A
12:20 PM64 °FPartly sunny.9 mph49%29.92 "HgN/A
11:50 AM64 °FPartly sunny.9 mph60%29.92 "HgN/A
11:20 AM63 °FPartly sunny.10 mph59%29.92 "HgN/A
10:50 AM63 °FBroken clouds.10 mph64%29.92 "HgN/A
10:20 AM63 °FSunny.10 mph59%29.92 "Hg10 mi
9:50 AM63 °FPassing clouds.12 mph59%29.92 "HgN/A
9:20 AM61 °FSunny.9 mph72%29.92 "Hg10 mi
8:50 AM59 °FSunny.8 mph72%29.92 "Hg10 mi
8:20 AM57 °FSunny.7 mph82%29.92 "Hg10 mi
7:50 AM55 °FSunny.6 mph82%29.89 "Hg10 mi
7:20 AM54 °FSunny.5 mph88%29.92 "Hg10 mi
6:50 AM54 °FSunny.6 mph88%29.89 "Hg10 mi
6:20 AM54 °FClear.6 mph88%29.89 "Hg10 mi
5:50 AM52 °FClear.3 mph88%29.89 "Hg10 mi
5:20 AM54 °FClear.5 mph82%29.89 "Hg10 mi
4:50 AM54 °FClear.2 mph82%29.89 "Hg10 mi
4:20 AM54 °FClear.5 mph82%29.89 "Hg10 mi
3:50 AM52 °FClear.3 mph82%29.89 "Hg10 mi
3:20 AM54 °FClear.3 mph77%29.89 "Hg10 mi
2:50 AM54 °FClear.3 mph77%29.89 "Hg10 mi
2:20 AM55 °FClear.5 mph77%29.89 "Hg10 mi
1:50 AM57 °FClear.5 mph72%29.89 "Hg10 mi
1:20 AM59 °FClear.5 mph72%29.89 "Hg10 mi
12:50 AM59 °FClear.5 mph68%29.86 "Hg10 mi
12:20 AM61 °FClear.6 mph63%29.86 "Hg10 mi
11:50 PM
Tue, May 5
61 °FClear.7 mph63%29.86 "Hg10 mi
11:20 PM63 °FClear.10 mph56%29.83 "Hg10 mi
10:50 PM61 °FClear.10 mph72%29.83 "Hg10 mi
10:20 PM63 °FClear.12 mph68%29.80 "Hg10 mi
Weather by CustomWeather, © 2015

See weather overviewHow to use our weather pages